Year,Month,Day,Hour,Minute,Value (Times are PST for temperature in C)
2007,01,11,00,00,-2.50
2007,01,11,00,01,-2.50
2007,01,11,00,02,-2.50
2007,01,11,00,03,-2.60
2007,01,11,00,04,-2.60
2007,01,11,00,05,-2.60
2007,01,11,00,06,-2.60
2007,01,11,00,07,-2.60
2007,01,11,00,08,-2.60
2007,01,11,00,09,-2.60
2007,01,11,00,10,-2.60
2007,01,11,00,11,-2.60
2007,01,11,00,12,-2.60
2007,01,11,00,13,-2.60
2007,01,11,00,14,-2.70
2007,01,11,00,15,-2.70
2007,01,11,00,16,-2.70
2007,01,11,00,17,-2.70
2007,01,11,00,18,-2.70
2007,01,11,00,19,-2.70
2007,01,11,00,20,-2.70
2007,01,11,00,21,-2.70
2007,01,11,00,22,-2.70
2007,01,11,00,23,-2.70
2007,01,11,00,24,-2.70
2007,01,11,00,25,-2.70
2007,01,11,00,26,-2.70
2007,01,11,00,27,-2.70
2007,01,11,00,28,-2.70
2007,01,11,00,29,-2.70
2007,01,11,00,30,-2.70
2007,01,11,00,31,-2.70
2007,01,11,00,32,-2.70
2007,01,11,00,33,-2.70
2007,01,11,00,34,-2.70
2007,01,11,00,35,-2.70
2007,01,11,00,36,-2.70
2007,01,11,00,37,-2.70
2007,01,11,00,38,-2.70
2007,01,11,00,39,-2.70
2007,01,11,00,40,-2.70
2007,01,11,00,41,-2.70
2007,01,11,00,42,-2.70
2007,01,11,00,43,-2.70
2007,01,11,00,44,-2.70
2007,01,11,00,45,-2.70
2007,01,11,00,46,-2.70
2007,01,11,00,47,-2.70
2007,01,11,00,48,-2.70
2007,01,11,00,49,-2.70
2007,01,11,00,50,-2.70
2007,01,11,00,51,-2.70
2007,01,11,00,52,-2.70
2007,01,11,00,53,-2.70
2007,01,11,00,54,-2.80
2007,01,11,00,55,-2.80
2007,01,11,00,56,-2.80
2007,01,11,00,57,-2.80
2007,01,11,00,58,-2.80
2007,01,11,00,59,-2.80
2007,01,11,01,00,-2.80
2007,01,11,01,01,-2.80
2007,01,11,01,02,-2.80
2007,01,11,01,03,-2.80
2007,01,11,01,04,-2.80
2007,01,11,01,05,-2.80
2007,01,11,01,06,-2.80
2007,01,11,01,07,-2.80
2007,01,11,01,08,-2.80
2007,01,11,01,09,-2.80
2007,01,11,01,10,-2.90
2007,01,11,01,11,-2.90
2007,01,11,01,12,-2.90
2007,01,11,01,13,-2.90
2007,01,11,01,14,-2.90
2007,01,11,01,15,-2.90
2007,01,11,01,16,-3.00
2007,01,11,01,17,-3.00
2007,01,11,01,18,-3.00
2007,01,11,01,19,-3.00
2007,01,11,01,20,-3.00
2007,01,11,01,21,-3.00
2007,01,11,01,22,-3.00
2007,01,11,01,23,-3.00
2007,01,11,01,24,-3.00
2007,01,11,01,25,-3.00
2007,01,11,01,26,-3.00
2007,01,11,01,27,-3.10
2007,01,11,01,28,-3.00
2007,01,11,01,29,-3.10
2007,01,11,01,30,-3.10
2007,01,11,01,31,-3.10
2007,01,11,01,32,-3.10
2007,01,11,01,33,-3.10
2007,01,11,01,34,-3.10
2007,01,11,01,35,-3.10
2007,01,11,01,36,-3.10
2007,01,11,01,37,-3.10
2007,01,11,01,38,-3.10
2007,01,11,01,39,-3.10
2007,01,11,01,40,-3.10
2007,01,11,01,41,-3.10
2007,01,11,01,42,-3.10
2007,01,11,01,43,-3.10
2007,01,11,01,44,-3.10
2007,01,11,01,45,-3.10
2007,01,11,01,46,-3.10
2007,01,11,01,47,-3.10
2007,01,11,01,48,-3.10
2007,01,11,01,49,-3.10
2007,01,11,01,50,-3.10
2007,01,11,01,51,-3.10
2007,01,11,01,52,-3.10
2007,01,11,01,53,-3.10
2007,01,11,01,54,-3.10
2007,01,11,01,55,-3.10
2007,01,11,01,56,-3.10
2007,01,11,01,57,-3.10
2007,01,11,01,58,-3.10
2007,01,11,01,59,-3.10
2007,01,11,02,00,-3.10
2007,01,11,02,01,-3.10
2007,01,11,02,02,-3.10
2007,01,11,02,03,-3.10
2007,01,11,02,04,-3.10
2007,01,11,02,05,-3.10
2007,01,11,02,06,-3.10
2007,01,11,02,07,-3.10
2007,01,11,02,08,-3.10
2007,01,11,02,09,-3.10
2007,01,11,02,10,-3.10
2007,01,11,02,11,-3.10
2007,01,11,02,12,-3.00
2007,01,11,02,13,-3.00
2007,01,11,02,14,-3.00
2007,01,11,02,15,-3.00
2007,01,11,02,16,-3.00
2007,01,11,02,17,-3.00
2007,01,11,02,18,-3.00
2007,01,11,02,19,-3.00
2007,01,11,02,20,-3.10
2007,01,11,02,21,-3.10
2007,01,11,02,22,-3.10
2007,01,11,02,23,-3.10
2007,01,11,02,24,-3.10
2007,01,11,02,25,-3.10
2007,01,11,02,26,-3.10
2007,01,11,02,27,-3.10
2007,01,11,02,28,-3.10
2007,01,11,02,29,-3.10
2007,01,11,02,30,-3.10
2007,01,11,02,31,-3.20
2007,01,11,02,32,-3.20
2007,01,11,02,33,-3.20
2007,01,11,02,34,-3.20
2007,01,11,02,35,-3.20
2007,01,11,02,36,-3.20
2007,01,11,02,37,-3.20
2007,01,11,02,38,-3.20
2007,01,11,02,39,-3.20
2007,01,11,02,40,-3.20
2007,01,11,02,41,-3.20
2007,01,11,02,42,-3.20
2007,01,11,02,43,-3.20
2007,01,11,02,44,-3.30
2007,01,11,02,45,-3.30
2007,01,11,02,46,-3.30
2007,01,11,02,47,-3.30
2007,01,11,02,48,-3.30
2007,01,11,02,49,-3.30
2007,01,11,02,50,-3.30
2007,01,11,02,51,-3.30
2007,01,11,02,52,-3.30
2007,01,11,02,53,-3.30
2007,01,11,02,54,-3.30
2007,01,11,02,55,-3.40
2007,01,11,02,56,-3.40
2007,01,11,02,57,-3.40
2007,01,11,02,58,-3.40
2007,01,11,02,59,-3.40
2007,01,11,03,00,-3.40
2007,01,11,03,01,-3.40
2007,01,11,03,02,-3.40
2007,01,11,03,03,-3.40
2007,01,11,03,04,-3.40
2007,01,11,03,05,-3.40
2007,01,11,03,06,-3.40
2007,01,11,03,07,-3.40
2007,01,11,03,08,-3.40
2007,01,11,03,09,-3.40
2007,01,11,03,10,-3.40
2007,01,11,03,11,-3.50
2007,01,11,03,12,-3.50
2007,01,11,03,13,-3.50
2007,01,11,03,14,-3.50
2007,01,11,03,15,-3.50
2007,01,11,03,16,-3.50
2007,01,11,03,17,-3.50
2007,01,11,03,18,-3.50
2007,01,11,03,19,-3.50
2007,01,11,03,20,-3.50
2007,01,11,03,21,-3.60
2007,01,11,03,22,-3.60
2007,01,11,03,23,-3.60
2007,01,11,03,24,-3.60
2007,01,11,03,25,-3.60
2007,01,11,03,26,-3.60
2007,01,11,03,27,-3.60
2007,01,11,03,28,-3.60
2007,01,11,03,29,-3.60
2007,01,11,03,30,-3.60
2007,01,11,03,31,-3.60
2007,01,11,03,32,-3.60
2007,01,11,03,33,-3.70
2007,01,11,03,34,-3.70
2007,01,11,03,35,-3.70
2007,01,11,03,36,-3.70
2007,01,11,03,37,-3.70
2007,01,11,03,38,-3.70
2007,01,11,03,39,-3.70
2007,01,11,03,40,-3.70
2007,01,11,03,41,-3.70
2007,01,11,03,42,-3.70
2007,01,11,03,43,-3.70
2007,01,11,03,44,-3.70
2007,01,11,03,45,-3.70
2007,01,11,03,46,-3.70
2007,01,11,03,47,-3.70
2007,01,11,03,48,-3.70
2007,01,11,03,49,-3.70
2007,01,11,03,50,-3.70
2007,01,11,03,51,-3.70
2007,01,11,03,52,-3.70
2007,01,11,03,53,-3.70
2007,01,11,03,54,-3.70
2007,01,11,03,55,-3.70
2007,01,11,03,56,-3.70
2007,01,11,03,57,-3.70
2007,01,11,03,58,-3.70
2007,01,11,03,59,-3.70
2007,01,11,04,00,-3.70
2007,01,11,04,01,-3.70
2007,01,11,04,02,-3.70
2007,01,11,04,03,-3.70
2007,01,11,04,04,-3.70
2007,01,11,04,05,-3.80
2007,01,11,04,06,-3.80
2007,01,11,04,07,-3.80
2007,01,11,04,08,-3.80
2007,01,11,04,09,-3.80
2007,01,11,04,10,-3.80
2007,01,11,04,11,-3.80
2007,01,11,04,12,-3.80
2007,01,11,04,13,-3.80
2007,01,11,04,14,-3.80
2007,01,11,04,15,-3.80
2007,01,11,04,16,-3.90
2007,01,11,04,17,-3.90
2007,01,11,04,18,-3.90
2007,01,11,04,19,-3.90
2007,01,11,04,20,-3.90
2007,01,11,04,21,-3.90
2007,01,11,04,22,-3.90
2007,01,11,04,23,-3.90
2007,01,11,04,24,-3.90
2007,01,11,04,25,-3.90
2007,01,11,04,26,-3.90
2007,01,11,04,27,-3.90
2007,01,11,04,28,-3.90
2007,01,11,04,29,-3.90
2007,01,11,04,30,-3.90
2007,01,11,04,31,-3.90
2007,01,11,04,32,-3.90
2007,01,11,04,33,-3.90
2007,01,11,04,34,-3.90
2007,01,11,04,35,-3.90
2007,01,11,04,36,-3.90
2007,01,11,04,37,-3.90
2007,01,11,04,38,-3.90
2007,01,11,04,39,-3.90
2007,01,11,04,40,-3.90
2007,01,11,04,41,-3.90
2007,01,11,04,42,-3.90
2007,01,11,04,43,-3.90
2007,01,11,04,44,-3.90
2007,01,11,04,45,-3.90
2007,01,11,04,46,-3.90
2007,01,11,04,47,-3.90
2007,01,11,04,48,-3.90
2007,01,11,04,49,-3.90
2007,01,11,04,50,-3.90
2007,01,11,04,51,-3.90
2007,01,11,04,52,-3.90
2007,01,11,04,53,-3.90
2007,01,11,04,54,-3.90
2007,01,11,04,55,-3.90
2007,01,11,04,56,-3.90
2007,01,11,04,57,-3.90
2007,01,11,04,58,-3.90
2007,01,11,04,59,-3.90
2007,01,11,05,00,-3.90
2007,01,11,05,01,-3.90
2007,01,11,05,02,-3.90
2007,01,11,05,03,-3.90
2007,01,11,05,04,-3.90
2007,01,11,05,05,-3.90
2007,01,11,05,06,-3.90
2007,01,11,05,07,-3.90
2007,01,11,05,08,-3.90
2007,01,11,05,09,-3.90
2007,01,11,05,10,-4.00
2007,01,11,05,11,-4.00
2007,01,11,05,12,-4.00
2007,01,11,05,13,-4.00
2007,01,11,05,14,-4.00
2007,01,11,05,15,-4.00
2007,01,11,05,16,-4.00
2007,01,11,05,17,-4.00
2007,01,11,05,18,-4.00
2007,01,11,05,19,-4.10
2007,01,11,05,20,-4.10
2007,01,11,05,21,-4.10
2007,01,11,05,22,-4.10
2007,01,11,05,23,-4.10
2007,01,11,05,24,-4.10
2007,01,11,05,25,-4.10
2007,01,11,05,26,-4.10
2007,01,11,05,27,-4.10
2007,01,11,05,28,-4.10
2007,01,11,05,29,-4.10
2007,01,11,05,30,-4.10
2007,01,11,05,31,-4.10
2007,01,11,05,32,-4.10
2007,01,11,05,33,-4.10
2007,01,11,05,34,-4.10
2007,01,11,05,35,-4.10
2007,01,11,05,36,-4.10
2007,01,11,05,37,-4.10
2007,01,11,05,38,-4.10
2007,01,11,05,39,-4.10
2007,01,11,05,40,-4.10
2007,01,11,05,41,-4.10
2007,01,11,05,42,-4.10
2007,01,11,05,43,-4.10
2007,01,11,05,44,-4.00
2007,01,11,05,45,-4.00
2007,01,11,05,46,-4.00
2007,01,11,05,47,-4.00
2007,01,11,05,48,-4.00
2007,01,11,05,49,-4.00
2007,01,11,05,50,-4.00
2007,01,11,05,51,-4.00
2007,01,11,05,52,-4.00
2007,01,11,05,53,-4.00
2007,01,11,05,54,-4.00
2007,01,11,05,55,-3.90
2007,01,11,05,56,-3.90
2007,01,11,05,57,-3.90
2007,01,11,05,58,-3.90
2007,01,11,05,59,-3.90
2007,01,11,06,00,-3.90
2007,01,11,06,01,-3.90
2007,01,11,06,02,-4.00
2007,01,11,06,03,-3.90
2007,01,11,06,04,-4.00
2007,01,11,06,05,-4.00
2007,01,11,06,06,-4.00
2007,01,11,06,07,-4.00
2007,01,11,06,08,-4.10
2007,01,11,06,09,-4.10
2007,01,11,06,10,-4.10
2007,01,11,06,11,-4.10
2007,01,11,06,12,-4.10
2007,01,11,06,13,-4.10
2007,01,11,06,14,-4.10
2007,01,11,06,15,-4.10
2007,01,11,06,16,-4.10
2007,01,11,06,17,-4.10
2007,01,11,06,18,-4.10
2007,01,11,06,19,-4.10
2007,01,11,06,20,-4.10
2007,01,11,06,21,-4.10
2007,01,11,06,22,-4.20
2007,01,11,06,23,-4.20
2007,01,11,06,24,-4.20
2007,01,11,06,25,-4.20
2007,01,11,06,26,-4.10
2007,01,11,06,27,-4.20
2007,01,11,06,28,-4.20
2007,01,11,06,29,-4.20
2007,01,11,06,30,-4.20
2007,01,11,06,31,-4.20
2007,01,11,06,32,-4.20
2007,01,11,06,33,-4.20
2007,01,11,06,34,-4.20
2007,01,11,06,35,-4.20
2007,01,11,06,36,-4.20
2007,01,11,06,37,-4.20
2007,01,11,06,38,-4.20
2007,01,11,06,39,-4.20
2007,01,11,06,40,-4.20
2007,01,11,06,41,-4.20
2007,01,11,06,42,-4.20
2007,01,11,06,43,-4.20
2007,01,11,06,44,-4.20
2007,01,11,06,45,-4.20
2007,01,11,06,46,-4.20
2007,01,11,06,47,-4.20
2007,01,11,06,48,-4.20
2007,01,11,06,49,-4.20
2007,01,11,06,50,-4.20
2007,01,11,06,51,-4.20
2007,01,11,06,52,-4.20
2007,01,11,06,53,-4.20
2007,01,11,06,54,-4.20
2007,01,11,06,55,-4.20
2007,01,11,06,56,-4.20
2007,01,11,06,57,-4.20
2007,01,11,06,58,-4.20
2007,01,11,06,59,-4.20
2007,01,11,07,00,-4.20
2007,01,11,07,01,-4.20
2007,01,11,07,02,-4.20
2007,01,11,07,03,-4.20
2007,01,11,07,04,-4.20
2007,01,11,07,05,-4.20
2007,01,11,07,06,-4.20
2007,01,11,07,07,-4.20
2007,01,11,07,08,-4.20
2007,01,11,07,09,-4.20
2007,01,11,07,10,-4.20
2007,01,11,07,11,-4.20
2007,01,11,07,12,-4.20
2007,01,11,07,13,-4.20
2007,01,11,07,14,-4.20
2007,01,11,07,15,-4.30
2007,01,11,07,16,-4.30
2007,01,11,07,17,-4.30
2007,01,11,07,18,-4.30
2007,01,11,07,19,-4.30
2007,01,11,07,20,-4.30
2007,01,11,07,21,-4.30
2007,01,11,07,22,-4.30
2007,01,11,07,23,-4.30
2007,01,11,07,24,-4.30
2007,01,11,07,25,-4.30
2007,01,11,07,26,-4.30
2007,01,11,07,27,-4.30
2007,01,11,07,28,-4.30
2007,01,11,07,29,-4.30
2007,01,11,07,30,-4.30
2007,01,11,07,31,-4.30
2007,01,11,07,32,-4.30
2007,01,11,07,33,-4.30
2007,01,11,07,34,-4.30
2007,01,11,07,35,-4.30
2007,01,11,07,36,-4.40
2007,01,11,07,37,-4.30
2007,01,11,07,38,-4.30
2007,01,11,07,39,-4.30
2007,01,11,07,40,-4.30
2007,01,11,07,41,-4.30
2007,01,11,07,42,-4.30
2007,01,11,07,43,-4.30
2007,01,11,07,44,-4.30
2007,01,11,07,45,-4.30
2007,01,11,07,46,-4.30
2007,01,11,07,47,-4.30
2007,01,11,07,48,-4.30
2007,01,11,07,49,-4.30
2007,01,11,07,50,-4.30
2007,01,11,07,51,-4.30
2007,01,11,07,52,-4.30
2007,01,11,07,53,-4.30
2007,01,11,07,54,-4.30
2007,01,11,07,55,-4.30
2007,01,11,07,56,-4.30
2007,01,11,07,57,-4.30
2007,01,11,07,58,-4.30
2007,01,11,07,59,-4.20
2007,01,11,08,00,-4.20
2007,01,11,08,01,-4.20
2007,01,11,08,02,-4.30
2007,01,11,08,03,-4.30
2007,01,11,08,04,-4.30
2007,01,11,08,05,-4.30
2007,01,11,08,06,-4.30
2007,01,11,08,07,-4.40
2007,01,11,08,08,-4.40
2007,01,11,08,09,-4.50
2007,01,11,08,10,-4.50
2007,01,11,08,11,-4.60
2007,01,11,08,12,-4.60
2007,01,11,08,13,-4.60
2007,01,11,08,14,-4.70
2007,01,11,08,15,-4.70
2007,01,11,08,16,-4.70
2007,01,11,08,17,-4.80
2007,01,11,08,18,-4.80
2007,01,11,08,19,-4.90
2007,01,11,08,20,-4.90
2007,01,11,08,21,-4.90
2007,01,11,08,22,-4.90
2007,01,11,08,23,-4.90
2007,01,11,08,24,-4.90
2007,01,11,08,25,-5.00
2007,01,11,08,26,-5.10
2007,01,11,08,27,-5.10
2007,01,11,08,28,-5.20
2007,01,11,08,29,-5.20
2007,01,11,08,30,-5.30
2007,01,11,08,31,-5.30
2007,01,11,08,32,-5.30
2007,01,11,08,33,-5.30
2007,01,11,08,34,-5.40
2007,01,11,08,35,-5.40
2007,01,11,08,36,-5.40
2007,01,11,08,37,-5.50
2007,01,11,08,38,-5.50
2007,01,11,08,39,-5.50
2007,01,11,08,40,-5.50
2007,01,11,08,41,-5.50
2007,01,11,08,42,-5.50
2007,01,11,08,43,-5.50
2007,01,11,08,44,-5.60
2007,01,11,08,45,-5.60
2007,01,11,08,46,-5.60
2007,01,11,08,47,-5.60
2007,01,11,08,48,-5.60
2007,01,11,08,49,-5.50
2007,01,11,08,50,-5.50
2007,01,11,08,51,-5.50
2007,01,11,08,52,-5.50
2007,01,11,08,53,-5.50
2007,01,11,08,54,-5.40
2007,01,11,08,55,-5.40
2007,01,11,08,56,-5.40
2007,01,11,08,57,-5.40
2007,01,11,08,58,-5.40
2007,01,11,08,59,-5.40
2007,01,11,09,00,-5.40
2007,01,11,09,01,-5.40
2007,01,11,09,02,-5.40
2007,01,11,09,03,-5.40
2007,01,11,09,04,-5.40
2007,01,11,09,05,-5.40
2007,01,11,09,06,-5.30
2007,01,11,09,07,-5.30
2007,01,11,09,08,-5.30
2007,01,11,09,09,-5.30
2007,01,11,09,10,-5.20
2007,01,11,09,11,-5.20
2007,01,11,09,12,-5.10
2007,01,11,09,13,-5.10
2007,01,11,09,14,-5.00
2007,01,11,09,15,-5.00
2007,01,11,09,16,-4.90
2007,01,11,09,17,-4.80
2007,01,11,09,18,-4.80
2007,01,11,09,19,-4.70
2007,01,11,09,20,-4.70
2007,01,11,09,21,-4.70
2007,01,11,09,22,-4.70
2007,01,11,09,23,-4.60
2007,01,11,09,24,-4.60
2007,01,11,09,25,-4.60
2007,01,11,09,26,-4.60
2007,01,11,09,27,-4.60
2007,01,11,09,28,-4.60
2007,01,11,09,29,-4.60
2007,01,11,09,30,-4.50
2007,01,11,09,31,-4.50
2007,01,11,09,32,-4.50
2007,01,11,09,33,-4.40
2007,01,11,09,34,-4.40
2007,01,11,09,35,-4.40
2007,01,11,09,36,-4.40
2007,01,11,09,37,-4.50
2007,01,11,09,38,-4.50
2007,01,11,09,39,-4.60
2007,01,11,09,40,-4.60
2007,01,11,09,41,-4.60
2007,01,11,09,42,-4.60
2007,01,11,09,43,-4.70
2007,01,11,09,44,-4.70
2007,01,11,09,45,-4.70
2007,01,11,09,46,-4.70
2007,01,11,09,47,-4.70
2007,01,11,09,48,-4.70
2007,01,11,09,49,-4.70
2007,01,11,09,50,-4.60
2007,01,11,09,51,-4.60
2007,01,11,09,52,-4.60
2007,01,11,09,53,-4.60
2007,01,11,09,54,-4.50
2007,01,11,09,55,-4.50
2007,01,11,09,56,-4.40
2007,01,11,09,57,-4.40
2007,01,11,09,58,-4.40
2007,01,11,09,59,-4.30
2007,01,11,10,00,-4.30
2007,01,11,10,01,-4.30
2007,01,11,10,02,-4.30
2007,01,11,10,03,-4.20
2007,01,11,10,04,-4.20
2007,01,11,10,05,-4.20
2007,01,11,10,06,-4.20
2007,01,11,10,07,-4.20
2007,01,11,10,08,-4.20
2007,01,11,10,09,-4.20
2007,01,11,10,10,-4.20
2007,01,11,10,11,-4.20
2007,01,11,10,12,-4.20
2007,01,11,10,13,-4.20
2007,01,11,10,14,-4.20
2007,01,11,10,15,-4.20
2007,01,11,10,16,-4.20
2007,01,11,10,17,-4.20
2007,01,11,10,18,-4.20
2007,01,11,10,19,-4.20
2007,01,11,10,20,-4.10
2007,01,11,10,21,-4.10
2007,01,11,10,22,-4.10
2007,01,11,10,23,-4.10
2007,01,11,10,24,-4.10
2007,01,11,10,25,-4.00
2007,01,11,10,26,-4.00
2007,01,11,10,27,-3.90
2007,01,11,10,28,-3.90
2007,01,11,10,29,-3.90
2007,01,11,10,30,-3.90
2007,01,11,10,31,-3.80
2007,01,11,10,32,-3.80
2007,01,11,10,33,-3.70
2007,01,11,10,34,-3.60
2007,01,11,10,35,-3.60
2007,01,11,10,36,-3.50
2007,01,11,10,37,-3.40
2007,01,11,10,38,-3.40
2007,01,11,10,39,-3.30
2007,01,11,10,40,-3.30
2007,01,11,10,41,-3.20
2007,01,11,10,42,-3.20
2007,01,11,10,43,-3.20
2007,01,11,10,44,-3.20
2007,01,11,10,45,-3.10
2007,01,11,10,46,-3.10
2007,01,11,10,47,-3.00
2007,01,11,10,48,-2.90
2007,01,11,10,49,-2.90
2007,01,11,10,50,-2.80
2007,01,11,10,51,-2.80
2007,01,11,10,52,-2.80
2007,01,11,10,53,-2.70
2007,01,11,10,54,-2.70
2007,01,11,10,55,-2.70
2007,01,11,10,56,-2.60
2007,01,11,10,57,-2.60
2007,01,11,10,58,-2.60
2007,01,11,10,59,-2.60
2007,01,11,11,00,-2.50
2007,01,11,11,01,-2.50
2007,01,11,11,02,-2.50
2007,01,11,11,03,-2.50
2007,01,11,11,04,-2.40
2007,01,11,11,05,-2.40
2007,01,11,11,06,-2.30
2007,01,11,11,07,-2.30
2007,01,11,11,08,-2.30
2007,01,11,11,09,-2.30
2007,01,11,11,10,-2.30
2007,01,11,11,11,-2.30
2007,01,11,11,12,-2.20
2007,01,11,11,13,-2.20
2007,01,11,11,14,-2.20
2007,01,11,11,15,-2.30
2007,01,11,11,16,-2.30
2007,01,11,11,17,-2.20
2007,01,11,11,18,-2.20
2007,01,11,11,19,-2.20
2007,01,11,11,20,-2.20
2007,01,11,11,21,-2.20
2007,01,11,11,22,-2.10
2007,01,11,11,23,-2.10
2007,01,11,11,24,-2.10
2007,01,11,11,25,-2.10
2007,01,11,11,26,-2.10
2007,01,11,11,27,-2.20
2007,01,11,11,28,-2.20
2007,01,11,11,29,-2.20
2007,01,11,11,30,-2.30
2007,01,11,11,31,-2.30
2007,01,11,11,32,-2.30
2007,01,11,11,33,-2.30
2007,01,11,11,34,-2.30
2007,01,11,11,35,-2.30
2007,01,11,11,36,-2.30
2007,01,11,11,37,-2.30
2007,01,11,11,38,-2.20
2007,01,11,11,39,-2.20
2007,01,11,11,40,-2.20
2007,01,11,11,41,-2.30
2007,01,11,11,42,-2.30
2007,01,11,11,43,-2.30
2007,01,11,11,44,-2.40
2007,01,11,11,45,-2.40
2007,01,11,11,46,-2.40
2007,01,11,11,47,-2.40
2007,01,11,11,48,-2.40
2007,01,11,11,49,-2.40
2007,01,11,11,50,-2.30
2007,01,11,11,51,-2.20
2007,01,11,11,52,-2.20
2007,01,11,11,53,-2.20
2007,01,11,11,54,-2.20
2007,01,11,11,55,-2.20
2007,01,11,11,56,-2.20
2007,01,11,11,57,-2.20
2007,01,11,11,58,-2.10
2007,01,11,11,59,-2.10
2007,01,11,12,00,-2.10
2007,01,11,12,01,-2.10
2007,01,11,12,02,-2.00
2007,01,11,12,03,-1.90
2007,01,11,12,04,-1.90
2007,01,11,12,05,-1.90
2007,01,11,12,06,-1.90
2007,01,11,12,07,-1.90
2007,01,11,12,08,-1.80
2007,01,11,12,09,-1.80
2007,01,11,12,10,-1.80
2007,01,11,12,11,-1.80
2007,01,11,12,12,-1.80
2007,01,11,12,13,-1.80
2007,01,11,12,14,-1.80
2007,01,11,12,15,-1.80
2007,01,11,12,16,-1.80
2007,01,11,12,17,-1.80
2007,01,11,12,18,-1.80
2007,01,11,12,19,-1.80
2007,01,11,12,20,-1.80
2007,01,11,12,21,-1.80
2007,01,11,12,22,-1.80
2007,01,11,12,23,-1.80
2007,01,11,12,24,-1.90
2007,01,11,12,25,-1.90
2007,01,11,12,26,-1.90
2007,01,11,12,27,-1.90
2007,01,11,12,28,-1.90
2007,01,11,12,29,-1.90
2007,01,11,12,30,-1.90
2007,01,11,12,31,-1.90
2007,01,11,12,32,-1.90
2007,01,11,12,33,-1.90
2007,01,11,12,34,-1.90
2007,01,11,12,35,-1.90
2007,01,11,12,36,-1.90
2007,01,11,12,37,-1.90
2007,01,11,12,38,-2.00
2007,01,11,12,39,-2.10
2007,01,11,12,40,-2.00
2007,01,11,12,41,-2.00
2007,01,11,12,42,-2.00
2007,01,11,12,43,-1.90
2007,01,11,12,44,-1.90
2007,01,11,12,45,-1.80
2007,01,11,12,46,-1.80
2007,01,11,12,47,-1.80
2007,01,11,12,48,-1.70
2007,01,11,12,49,-1.80
2007,01,11,12,50,-1.80
2007,01,11,12,51,-1.80
2007,01,11,12,52,-1.80
2007,01,11,12,53,-1.80
2007,01,11,12,54,-1.80
2007,01,11,12,55,-1.80
2007,01,11,12,56,-1.80
2007,01,11,12,57,-1.80
2007,01,11,12,58,-1.80
2007,01,11,12,59,-1.70
2007,01,11,13,00,-1.80
2007,01,11,13,01,-1.80
2007,01,11,13,02,-1.70
2007,01,11,13,03,-1.70
2007,01,11,13,04,-1.70
2007,01,11,13,05,-1.70
2007,01,11,13,06,-1.70
2007,01,11,13,07,-1.60
2007,01,11,13,08,-1.60
2007,01,11,13,09,-1.60
2007,01,11,13,10,-1.60
2007,01,11,13,11,-1.70
2007,01,11,13,12,-1.70
2007,01,11,13,13,-1.80
2007,01,11,13,14,-1.80
2007,01,11,13,15,-1.80
2007,01,11,13,16,-1.80
2007,01,11,13,17,-1.80
2007,01,11,13,18,-1.80
2007,01,11,13,19,-1.80
2007,01,11,13,20,-1.70
2007,01,11,13,21,-1.70
2007,01,11,13,22,-1.70
2007,01,11,13,23,-1.70
2007,01,11,13,24,-1.70
2007,01,11,13,25,-1.80
2007,01,11,13,26,-1.70
2007,01,11,13,27,-1.70
2007,01,11,13,28,-1.70
2007,01,11,13,29,-1.70
2007,01,11,13,30,-1.60
2007,01,11,13,31,-1.60
2007,01,11,13,32,-1.60
2007,01,11,13,33,-1.60
2007,01,11,13,34,-1.60
2007,01,11,13,35,-1.60
2007,01,11,13,36,-1.70
2007,01,11,13,37,-1.70
2007,01,11,13,38,-1.60
2007,01,11,13,39,-1.50
2007,01,11,13,40,-1.50
2007,01,11,13,41,-1.40
2007,01,11,13,42,-1.30
2007,01,11,13,43,-1.30
2007,01,11,13,44,-1.30
2007,01,11,13,45,-1.20
2007,01,11,13,46,-1.20
2007,01,11,13,47,-1.20
2007,01,11,13,48,-1.20
2007,01,11,13,49,-1.20
2007,01,11,13,50,-1.20
2007,01,11,13,51,-1.20
2007,01,11,13,52,-1.30
2007,01,11,13,53,-1.30
2007,01,11,13,54,-1.30
2007,01,11,13,55,-1.30
2007,01,11,13,56,-1.30
2007,01,11,13,57,-1.30
2007,01,11,13,58,-1.20
2007,01,11,13,59,-1.20
2007,01,11,14,00,-1.10
2007,01,11,14,01,-1.10
2007,01,11,14,02,-1.00
2007,01,11,14,03,-0.90
2007,01,11,14,04,-0.90
2007,01,11,14,05,-0.90
2007,01,11,14,06,-0.90
2007,01,11,14,07,-0.90
2007,01,11,14,08,-0.90
2007,01,11,14,09,-0.90
2007,01,11,14,10,-0.90
2007,01,11,14,11,-0.90
2007,01,11,14,12,-0.90
2007,01,11,14,13,-0.90
2007,01,11,14,14,-0.90
2007,01,11,14,15,-0.90
2007,01,11,14,16,-0.90
2007,01,11,14,17,-1.00
2007,01,11,14,18,-1.00
2007,01,11,14,19,-1.00
2007,01,11,14,20,-0.90
2007,01,11,14,21,-0.90
2007,01,11,14,22,-1.00
2007,01,11,14,23,-1.00
2007,01,11,14,24,-1.00
2007,01,11,14,25,-1.00
2007,01,11,14,26,-1.10
2007,01,11,14,27,-1.10
2007,01,11,14,28,-1.20
2007,01,11,14,29,-1.20
2007,01,11,14,30,-1.20
2007,01,11,14,31,-1.20
2007,01,11,14,32,-1.20
2007,01,11,14,33,-1.20
2007,01,11,14,34,-1.20
2007,01,11,14,35,-1.20
2007,01,11,14,36,-1.20
2007,01,11,14,37,-1.20
2007,01,11,14,38,-1.20
2007,01,11,14,39,-1.30
2007,01,11,14,40,-1.30
2007,01,11,14,41,-1.30
2007,01,11,14,42,-1.40
2007,01,11,14,43,-1.30
2007,01,11,14,44,-1.30
2007,01,11,14,45,-1.30
2007,01,11,14,46,-1.30
2007,01,11,14,47,-1.30
2007,01,11,14,48,-1.30
2007,01,11,14,49,-1.30
2007,01,11,14,50,-1.30
2007,01,11,14,51,-1.30
2007,01,11,14,52,-1.30
2007,01,11,14,53,-1.30
2007,01,11,14,54,-1.30
2007,01,11,14,55,-1.20
2007,01,11,14,56,-1.20
2007,01,11,14,57,-1.10
2007,01,11,14,58,-1.10
2007,01,11,14,59,-1.00
2007,01,11,15,00,-1.00
2007,01,11,15,01,-0.90
2007,01,11,15,02,-0.90
2007,01,11,15,03,-0.90
2007,01,11,15,04,-0.90
2007,01,11,15,05,-0.90
2007,01,11,15,06,-0.90
2007,01,11,15,07,-0.90
2007,01,11,15,08,-0.90
2007,01,11,15,09,-0.80
2007,01,11,15,10,-0.80
2007,01,11,15,11,-0.80
2007,01,11,15,12,-0.80
2007,01,11,15,13,-0.80
2007,01,11,15,14,-0.80
2007,01,11,15,15,-0.80
2007,01,11,15,16,-0.80
2007,01,11,15,17,-0.70
2007,01,11,15,18,-0.70
2007,01,11,15,19,-0.70
2007,01,11,15,20,-0.70
2007,01,11,15,21,-0.70
2007,01,11,15,22,-0.70
2007,01,11,15,23,-0.70
2007,01,11,15,24,-0.70
2007,01,11,15,25,-0.80
2007,01,11,15,26,-0.80
2007,01,11,15,27,-0.80
2007,01,11,15,28,-0.90
2007,01,11,15,29,-0.90
2007,01,11,15,30,-0.90
2007,01,11,15,31,-1.00
2007,01,11,15,32,-1.00
2007,01,11,15,33,-1.00
2007,01,11,15,34,-0.90
2007,01,11,15,35,-0.90
2007,01,11,15,36,-0.90
2007,01,11,15,37,-1.00
2007,01,11,15,38,-1.10
2007,01,11,15,39,-1.10
2007,01,11,15,40,-1.10
2007,01,11,15,41,-1.10
2007,01,11,15,42,-1.10
2007,01,11,15,43,-1.10
2007,01,11,15,44,-1.10
2007,01,11,15,45,-1.00
2007,01,11,15,46,-1.00
2007,01,11,15,47,-1.00
2007,01,11,15,48,-1.00
2007,01,11,15,49,-1.10
2007,01,11,15,50,-1.10
2007,01,11,15,51,-1.10
2007,01,11,15,52,-1.10
2007,01,11,15,53,-1.10
2007,01,11,15,54,-1.10
2007,01,11,15,55,-1.10
2007,01,11,15,56,-1.10
2007,01,11,15,57,-1.10
2007,01,11,15,58,-1.10
2007,01,11,15,59,-1.10
2007,01,11,16,00,-1.10
2007,01,11,16,01,-1.20
2007,01,11,16,02,-1.20
2007,01,11,16,03,-1.20
2007,01,11,16,04,-1.20
2007,01,11,16,05,-1.20
2007,01,11,16,06,-1.20
2007,01,11,16,07,-1.30
2007,01,11,16,08,-1.30
2007,01,11,16,09,-1.30
2007,01,11,16,10,-1.40
2007,01,11,16,11,-1.40
2007,01,11,16,12,-1.50
2007,01,11,16,13,-1.60
2007,01,11,16,14,-1.60
2007,01,11,16,15,-1.60
2007,01,11,16,16,-1.70
2007,01,11,16,17,-1.80
2007,01,11,16,18,-1.80
2007,01,11,16,19,-1.90
2007,01,11,16,20,-1.90
2007,01,11,16,21,-2.00
2007,01,11,16,22,-2.00
2007,01,11,16,23,-2.10
2007,01,11,16,24,-2.10
2007,01,11,16,25,-2.10
2007,01,11,16,26,-2.10
2007,01,11,16,27,-2.10
2007,01,11,16,28,-2.20
2007,01,11,16,29,-2.20
2007,01,11,16,30,-2.20
2007,01,11,16,31,-2.30
2007,01,11,16,32,-2.30
2007,01,11,16,33,-2.30
2007,01,11,16,34,-2.40
2007,01,11,16,35,-2.40
2007,01,11,16,36,-2.40
2007,01,11,16,37,-2.40
2007,01,11,16,38,-2.40
2007,01,11,16,39,-2.40
2007,01,11,16,40,-2.50
2007,01,11,16,41,-2.50
2007,01,11,16,42,-2.50
2007,01,11,16,43,-2.50
2007,01,11,16,44,-2.60
2007,01,11,16,45,-2.60
2007,01,11,16,46,-2.60
2007,01,11,16,47,-2.70
2007,01,11,16,48,-2.70
2007,01,11,16,49,-2.80
2007,01,11,16,50,-2.80
2007,01,11,16,51,-2.90
2007,01,11,16,52,-2.90
2007,01,11,16,53,-2.90
2007,01,11,16,54,-3.00
2007,01,11,16,55,-3.00
2007,01,11,16,56,-3.10
2007,01,11,16,57,-3.10
2007,01,11,16,58,-3.20
2007,01,11,16,59,-3.20
2007,01,11,17,00,-3.20
2007,01,11,17,01,-3.30
2007,01,11,17,02,-3.30
2007,01,11,17,03,-3.40
2007,01,11,17,04,-3.40
2007,01,11,17,05,-3.40
2007,01,11,17,06,-3.40
2007,01,11,17,07,-3.50
2007,01,11,17,08,-3.50
2007,01,11,17,09,-3.50
2007,01,11,17,10,-3.50
2007,01,11,17,11,-3.60
2007,01,11,17,12,-3.60
2007,01,11,17,13,-3.60
2007,01,11,17,14,-3.60
2007,01,11,17,15,-3.60
2007,01,11,17,16,-3.60
2007,01,11,17,17,-3.60
2007,01,11,17,18,-3.70
2007,01,11,17,19,-3.70